User: anonymous   Login
Location: Monteux
(44.0348°N, 4.9972°E)
Time: 08:33:55
(UTC+00:00)
Language:

OPS 4078 - Orbit

View from above orbital plane
View from above orbital plane
View from above satellite
View from above satellite

Ground track
Ground track

The orbit data is extracted from the following two-line orbital elements,

1 03510U 68092A   21171.38653141  .00000008  00000-0  20336-4 0  9993
2 03510  98.3316 326.4696 0028974 284.3149  75.4816 14.27227434737169
Epoch (UTC): 20 June 2021 09:16:36
Eccentricity: 0.0028974
inclination: 98.3316°
perigee height: 780 km
apogee height: 822 km
right ascension of ascending node: 326.4696°
argument of perigee: 284.3149°
revolutions per day: 14.27227434
mean anomaly at epoch: 75.4816°
orbit number at epoch: 73716

The dashed part of the orbit path shows where the satellite is in the earth's shadow,  

DLR